Location: Byszew
(52.1813°N, 19.2693°E)
Time: 00:54:55
(UTC+00:00)

Cosmos 2322 Rocket - Pass Details

Date: 02 July 2021
Orbit: 833 x 850 km, 71.0° (Epoch: 29 July)

Event Time Altitude Azimuth Distance (km) Brightness Sun altitude
Rises 01:04:19 0° 329° (NNW) 3,422 5.8 -9.0°
Reaches altitude 10° 01:06:50 10° 334° (NNW) 2,480 5.1 -8.8°
Maximum altitude 01:12:27 57° 53° (NE) 994 3.0 -8.4°
Drops below altitude 10° 01:17:59 10° 132° (SE) 2,455 4.6 -7.9°
Sets 01:20:28 0° 136° (SE) 3,383 5.2 -7.7°
